Abha, Saudi Arabia

4:13 AM +03 on September 21, 2019 (GMT +0300)
Abha

Weather History for OEAB - May, 2019

Change the Weather History Date:

Thursday, May 9, 2019

  Actual Average Record
Temperature  
Mean Temperature 71 °F -  
Max Temperature 80 °F 81 °F 96 °F (2002)
Min Temperature 62 °F 59 °F 55 °F (2013)
Cooling Degree Days 6    
Growing Degree Days 21 (Base 50)    
Moisture  
Dew Point 50 °F    
Average Humidity 49    
Maximum Humidity 73    
Minimum Humidity 28    
Precipitation  
Precipitation 0.00 in - - ()
Sea Level Pressure  
Sea Level Pressure 30.22 in    
Wind  
Wind Speed 7 mph ()    
Max Wind Speed 74 mph    
Max Gust Speed 29 mph    
Visibility 6.2 miles    
Events Rain , Thunderstorm    
Averages and records for this station are not official NWS values.
T = Trace of Precipitation, MM = Missing Value Source: Averaged Metar Reports

Daily Weather History Graph

Daily Weather History Graph

Search for Another Location

Airport or City:

Astronomy

May. 09, 2019 Rise Set
Actual Time 5:38 AM +03 6:33 PM +03
Civil Twilight 5:15 AM +03 6:56 PM +03
Nautical Twilight 4:48 AM +03 7:23 PM +03
Astronomical Twilight 4:20 AM +03 7:51 PM +03
Moon 9:24 AM +03 (5/9) 10:56 PM +03 (5/9)
Length of Visible Light 13h 40m
Length of Day
12h 54m
Waxing Crescent, 22% of the Moon is Illuminated
May 9
Waxing Crescent
May 12
First Quarter
May 19
Full
May 26
Last Quarter
Jun 3
New

Hourly Weather History & Observations

Time (+03) Temp. Dew Point Humidity Pressure Visibility Wind Dir Wind Speed Gust Speed Precip Events Conditions
12:00 AM 69.8 °F 50.0 °F 49% 30.21 in - SW 4.6 mph - N/A   Clear
1:00 AM 64.4 °F 50.0 °F 59% 30.21 in - Calm Calm - N/A   Clear
3:00 AM 64.4 °F 46.4 °F 52% 30.18 in - Calm Calm - N/A   Clear
4:00 AM 62.6 °F 46.4 °F 55% 30.18 in - Calm Calm - N/A   Clear
5:00 AM 64.4 °F 48.2 °F 56% 30.21 in - SSW 5.8 mph - N/A   Clear
6:00 AM 64.4 °F 44.6 °F 49% 30.21 in - WSW 5.8 mph - N/A   Clear
8:00 AM 75.2 °F 44.6 °F 34% 30.24 in - Calm Calm - N/A   Clear
9:00 AM 78.8 °F 42.8 °F 28% 30.24 in - South 4.6 mph - N/A   Clear
10:00 AM 78.8 °F 46.4 °F 32% 30.24 in 6.2 mi South 73.6 mph - N/A   Partly Cloudy
11:00 AM 80.6 °F 44.6 °F 28% 30.24 in 6.2 mi South 4.6 mph - N/A   Scattered Clouds
12:00 PM 80.6 °F 51.8 °F 37% 30.21 in 6.2 mi SSW 9.2 mph - N/A   Partly Cloudy
1:00 PM 77.0 °F 57.2 °F 50% 30.21 in 6.2 mi South 11.5 mph - N/A   Partly Cloudy
2:00 PM 75.2 °F 53.6 °F 47% 30.21 in 6.2 mi South 11.5 mph - N/A   Partly Cloudy
3:00 PM 78.8 °F 50.0 °F 36% 30.18 in 6.2 mi SW 11.5 mph - N/A   Partly Cloudy
4:00 PM 77.0 °F 46.4 °F 34% 30.18 in 6.2 mi SSW 9.2 mph - N/A   Partly Cloudy
5:00 PM 77.0 °F 44.6 °F 32% 30.18 in 6.2 mi NNW 11.5 mph - N/A   Partly Cloudy
6:00 PM 66.2 °F 53.6 °F 64% 30.24 in 5.6 mi East 17.3 mph 28.8 mph N/A Rain , Thunderstorm Thunderstorms and Rain
7:00 PM 62.6 °F 53.6 °F 72% 30.24 in 6.2 mi ENE 13.8 mph - N/A Thunderstorm Thunderstorm
8:00 PM 66.2 °F 55.4 °F 68% 30.24 in 6.2 mi NNE 6.9 mph - N/A   Partly Cloudy
9:00 PM 66.2 °F 53.6 °F 64% 30.21 in 6.2 mi WSW 4.6 mph - N/A   Partly Cloudy
10:00 PM 64.4 °F 55.4 °F 73% 30.24 in - Calm Calm - N/A   Clear
11:00 PM 66.2 °F 51.8 °F 60% 30.24 in - SSW 6.9 mph - N/A   Clear